QFA557 YMML-YSSY

Flight info

Callsign QFA557
Flight time 1h 9m
Altitude 37000
Route DOSEL2/34 DOSEL Y59 RIVET
Aircraft A21N/M-SDE2E3FGHIRWXY/LB1

Departure

Time 2026-05-04 10:13
Airport Melbourne Airport (YMML)

Arrival

Time 2026-05-04 11:22
Airport Sydney Kingsford Smith International Airport (YSSY)
Time Latitude Longitude Altitude Speed Heading
2026-05-04 09:39 -37.66626 144.84955 406 ft 0 kts 212°
2026-05-04 09:54 -37.66620 144.84960 406 ft 2 kts 212°
2026-05-04 09:54 -37.66610 144.84968 401 ft 2 kts 212°
2026-05-04 09:54 -37.66600 144.84976 402 ft 2 kts 212°
2026-05-04 09:54 -37.66590 144.84984 403 ft 2 kts 212°
2026-05-04 09:55 -37.66580 144.84992 405 ft 2 kts 212°
2026-05-04 09:55 -37.66570 144.85000 403 ft 2 kts 213°
2026-05-04 09:55 -37.66556 144.85012 407 ft 3 kts 213°
2026-05-04 09:55 -37.66539 144.85026 405 ft 3 kts 227°
2026-05-04 09:56 -37.66533 144.85039 403 ft 0 kts 272°
2026-05-04 09:57 -37.66533 144.85037 404 ft 2 kts 272°
2026-05-04 09:58 -37.66532 144.85007 409 ft 3 kts 270°
2026-05-04 09:58 -37.66536 144.84951 408 ft 12 kts 263°
2026-05-04 09:58 -37.66567 144.84822 407 ft 17 kts 224°
2026-05-04 10:00 -37.66938 144.84221 389 ft 18 kts 171°
2026-05-04 10:00 -37.67079 144.84248 389 ft 23 kts 171°
2026-05-04 10:02 -37.68021 144.84424 361 ft 21 kts 172°
2026-05-04 10:04 -37.68404 144.84424 357 ft 0 kts 213°
2026-05-04 10:05 -37.68410 144.84418 357 ft 3 kts 213°
2026-05-04 10:05 -37.68444 144.84390 354 ft 9 kts 215°
2026-05-04 10:06 -37.68482 144.84356 357 ft 4 kts 214°
2026-05-04 10:06 -37.68487 144.84353 348 ft 0 kts 214°
2026-05-04 10:08 -37.68487 144.84352 348 ft 1 kts 214°
2026-05-04 10:08 -37.68516 144.84327 349 ft 8 kts 217°
2026-05-04 10:08 -37.68547 144.84266 351 ft 7 kts 255°
2026-05-04 10:09 -37.68549 144.84255 350 ft 0 kts 258°
2026-05-04 10:10 -37.68550 144.84250 348 ft 5 kts 259°
2026-05-04 10:10 -37.68561 144.84142 353 ft 14 kts 270°
2026-05-04 10:10 -37.68525 144.84092 351 ft 0 kts 348°
2026-05-04 10:12 -37.68524 144.84092 351 ft 0 kts 348°
2026-05-04 10:12 -37.68303 144.84048 356 ft 66 kts 352°
2026-05-04 10:13 -37.67606 144.83919 369 ft 136 kts 352°
2026-05-04 10:13 -37.66509 144.83721 601 ft 168 kts 353°
2026-05-04 10:13 -37.65380 144.83526 1478 ft 161 kts 349°
2026-05-04 10:13 -37.64270 144.83330 2309 ft 164 kts 345°
2026-05-04 10:14 -37.63055 144.83089 2644 ft 188 kts 344°
2026-05-04 10:14 -37.61694 144.82813 2997 ft 212 kts 344°
2026-05-04 10:16 -37.49957 144.87873 6542 ft 276 kts 19°
2026-05-04 10:16 -37.48220 144.88916 7346 ft 279 kts 20°
2026-05-04 10:16 -37.46450 144.89981 8104 ft 283 kts 20°
2026-05-04 10:16 -37.44674 144.91107 8901 ft 289 kts 26°
2026-05-04 10:17 -37.43096 144.92740 9680 ft 300 kts 45°
2026-05-04 10:17 -37.41796 144.94838 10366 ft 310 kts 51°
2026-05-04 10:19 -37.31676 145.12868 14182 ft 386 kts 51°
2026-05-04 10:19 -37.30115 145.15625 14857 ft 389 kts 51°
2026-05-04 10:19 -37.29070 145.17467 15301 ft 391 kts 51°
2026-05-04 10:19 -37.27484 145.20261 15974 ft 395 kts 51°
2026-05-04 10:20 -37.25885 145.23074 16636 ft 398 kts 51°
2026-05-04 10:20 -37.23721 145.26878 17492 ft 402 kts 51°
2026-05-04 10:20 -37.22086 145.29749 18154 ft 405 kts 51°
2026-05-04 10:20 -37.20462 145.32597 18684 ft 408 kts 51°
2026-05-04 10:21 -37.18803 145.35507 19222 ft 411 kts 51°
2026-05-04 10:21 -37.17674 145.37483 19587 ft 413 kts 51°
2026-05-04 10:21 -37.15451 145.41374 20296 ft 416 kts 50°
2026-05-04 10:21 -37.13756 145.44334 20820 ft 419 kts 50°
2026-05-04 10:22 -37.10326 145.50312 21862 ft 425 kts 50°
2026-05-04 10:22 -37.09179 145.52309 22189 ft 427 kts 50°
2026-05-04 10:22 -37.07440 145.55335 22686 ft 429 kts 50°
2026-05-04 10:23 -37.05692 145.58374 23158 ft 432 kts 50°
2026-05-04 10:23 -37.03932 145.61431 23615 ft 434 kts 50°
2026-05-04 10:25 -36.91420 145.83087 24020 ft 440 kts 49°
2026-05-04 10:25 -36.89624 145.86184 24019 ft 439 kts 49°
2026-05-04 10:25 -36.87828 145.89281 24019 ft 439 kts 49°
2026-05-04 10:25 -36.86033 145.92371 24022 ft 439 kts 48°
2026-05-04 10:26 -36.84259 145.95421 24027 ft 439 kts 48°
2026-05-04 10:26 -36.82464 145.98504 24025 ft 439 kts 48°
2026-05-04 10:26 -36.80665 146.01593 24022 ft 440 kts 48°
2026-05-04 10:26 -36.78866 146.04679 24010 ft 439 kts 48°
2026-05-04 10:27 -36.77069 146.07759 24026 ft 438 kts 47°
2026-05-04 10:27 -36.75279 146.10827 24020 ft 436 kts 46°
2026-05-04 10:27 -36.73491 146.13887 24029 ft 436 kts 46°
2026-05-04 10:27 -36.71701 146.16944 24032 ft 436 kts 46°
2026-05-04 10:28 -36.69913 146.19994 24034 ft 437 kts 46°
2026-05-04 10:28 -36.68118 146.23054 24071 ft 438 kts 46°
2026-05-04 10:28 -36.66314 146.26123 24430 ft 440 kts 46°
2026-05-04 10:28 -36.64501 146.29209 24828 ft 442 kts 46°
2026-05-04 10:29 -36.62684 146.32299 25135 ft 444 kts 45°
2026-05-04 10:29 -36.60865 146.35392 25607 ft 442 kts 45°
2026-05-04 10:29 -36.59044 146.38487 25951 ft 444 kts 45°
2026-05-04 10:29 -36.57207 146.41599 26233 ft 448 kts 44°
2026-05-04 10:30 -36.55360 146.44726 26537 ft 450 kts 44°
2026-05-04 10:30 -36.53496 146.47880 26834 ft 453 kts 44°
2026-05-04 10:30 -36.51626 146.51042 27127 ft 456 kts 44°
2026-05-04 10:30 -36.49736 146.54236 27411 ft 458 kts 44°
2026-05-04 10:31 -36.47843 146.57433 27629 ft 461 kts 44°
2026-05-04 10:31 -36.45954 146.60620 27853 ft 464 kts 44°
2026-05-04 10:32 -36.34428 146.80020 29838 ft 465 kts 44°
2026-05-04 10:33 -36.32504 146.83243 30134 ft 466 kts 44°
2026-05-04 10:33 -36.30598 146.86433 30412 ft 466 kts 44°
2026-05-04 10:33 -36.28673 146.89654 30668 ft 466 kts 44°
2026-05-04 10:33 -36.26715 146.92925 30932 ft 466 kts 44°
2026-05-04 10:34 -36.24840 146.96055 31180 ft 466 kts 44°
2026-05-04 10:34 -36.22963 146.99185 31400 ft 467 kts 44°
2026-05-04 10:34 -36.21051 147.02371 31599 ft 468 kts 44°
2026-05-04 10:34 -36.19102 147.05616 31796 ft 469 kts 44°
2026-05-04 10:35 -36.17155 147.08852 32024 ft 469 kts 44°
2026-05-04 10:35 -36.15207 147.12090 32230 ft 469 kts 44°
2026-05-04 10:35 -36.13260 147.15325 32538 ft 467 kts 44°
2026-05-04 10:35 -36.11316 147.18552 32787 ft 467 kts 44°
2026-05-04 10:36 -36.09373 147.21771 32992 ft 467 kts 44°
2026-05-04 10:36 -36.07422 147.24997 33052 ft 469 kts 44°
2026-05-04 10:36 -36.03516 147.31451 33070 ft 469 kts 44°
2026-05-04 10:37 -35.99628 147.37867 33071 ft 469 kts 44°
2026-05-04 10:37 -35.95716 147.44312 33075 ft 468 kts 44°
2026-05-04 10:39 -35.82062 147.66703 33083 ft 467 kts 44°
2026-05-04 10:40 -35.78141 147.73106 33088 ft 467 kts 43°
2026-05-04 10:40 -35.74227 147.79484 33095 ft 467 kts 43°
2026-05-04 10:41 -35.70331 147.85823 33094 ft 467 kts 43°
2026-05-04 10:41 -35.66410 147.92191 33097 ft 467 kts 43°
2026-05-04 10:42 -35.62481 147.98560 33099 ft 467 kts 43°
2026-05-04 10:42 -35.58549 148.04923 33101 ft 467 kts 43°
2026-05-04 10:43 -35.54613 148.11282 33096 ft 467 kts 43°
2026-05-04 10:45 -35.38852 148.36621 33102 ft 467 kts 42°
2026-05-04 10:45 -35.34894 148.42954 33106 ft 468 kts 42°
2026-05-04 10:46 -35.30929 148.49287 33085 ft 468 kts 42°
2026-05-04 10:46 -35.26997 148.55560 33108 ft 467 kts 42°
2026-05-04 10:47 -35.23032 148.61873 33104 ft 467 kts 42°
2026-05-04 10:47 -35.19062 148.68179 33111 ft 468 kts 42°
2026-05-04 10:49 -35.03147 148.93351 33104 ft 468 kts 42°
2026-05-04 10:50 -34.99178 148.99599 33101 ft 469 kts 42°
2026-05-04 10:51 -34.85238 149.21467 31332 ft 464 kts 43°
2026-05-04 10:52 -34.83267 149.24551 30860 ft 459 kts 43°
2026-05-04 10:52 -34.81317 149.27606 30393 ft 453 kts 43°
2026-05-04 10:52 -34.79391 149.30619 29867 ft 448 kts 43°
2026-05-04 10:54 -34.68027 149.52644 26250 ft 436 kts 53°
2026-05-04 10:54 -34.66613 149.55902 25766 ft 434 kts 53°
2026-05-04 10:56 -34.56987 149.77928 22336 ft 410 kts 53°
2026-05-04 10:56 -34.55652 149.80962 21879 ft 406 kts 53°
2026-05-04 10:56 -34.54326 149.83973 21408 ft 403 kts 53°
2026-05-04 10:57 -34.53009 149.86960 20945 ft 400 kts 53°
2026-05-04 10:57 -34.51698 149.89929 20491 ft 396 kts 54°
2026-05-04 10:57 -34.50404 149.92860 20059 ft 393 kts 54°
2026-05-04 10:57 -34.49118 149.95768 19611 ft 389 kts 54°
2026-05-04 10:58 -34.47857 149.98615 19196 ft 386 kts 54°
2026-05-04 10:58 -34.46586 150.01482 18770 ft 383 kts 54°
2026-05-04 10:58 -34.45325 150.04327 18354 ft 381 kts 54°
2026-05-04 10:58 -34.44080 150.07137 17892 ft 377 kts 54°
2026-05-04 10:59 -34.42841 150.09927 17470 ft 375 kts 54°
2026-05-04 10:59 -34.41607 150.12708 17056 ft 373 kts 54°
2026-05-04 10:59 -34.40392 150.15439 16654 ft 371 kts 54°
2026-05-04 10:59 -34.39171 150.18184 16228 ft 369 kts 54°
2026-05-04 11:00 -34.37956 150.20913 15833 ft 366 kts 54°
2026-05-04 11:01 -34.29686 150.39429 13072 ft 348 kts 55°
2026-05-04 11:02 -34.28551 150.41964 12706 ft 346 kts 55°
2026-05-04 11:02 -34.27407 150.44521 12379 ft 345 kts 55°
2026-05-04 11:05 -34.12963 150.76710 7941 ft 292 kts 56°
2026-05-04 11:06 -34.12321 150.78134 7738 ft 290 kts 56°
2026-05-04 11:06 -34.11357 150.80272 7446 ft 289 kts 56°
2026-05-04 11:06 -34.10401 150.82390 7158 ft 288 kts 56°
2026-05-04 11:06 -34.09444 150.84515 6883 ft 287 kts 56°
2026-05-04 11:08 -34.03279 150.99578 6022 ft 296 kts 87°
2026-05-04 11:10 -34.13903 151.09316 6019 ft 295 kts 172°
2026-05-04 11:12 -34.25178 151.17076 5099 ft 269 kts 104°
2026-05-04 11:12 -34.25665 151.19224 4817 ft 262 kts 103°
2026-05-04 11:12 -34.26127 151.21339 4536 ft 256 kts 103°
2026-05-04 11:12 -34.26517 151.23390 4262 ft 245 kts 91°
2026-05-04 11:13 -34.26239 151.25316 3996 ft 225 kts 57°
2026-05-04 11:13 -34.25233 151.26634 3751 ft 208 kts 22°
2026-05-04 11:13 -34.23891 151.26973 3517 ft 191 kts 349°
2026-05-04 11:13 -34.22677 151.26540 3263 ft 176 kts 335°
2026-05-04 11:14 -34.22312 151.26351 3178 ft 174 kts 334°
2026-05-04 11:14 -34.20121 151.25105 3013 ft 174 kts 333°
2026-05-04 11:16 -34.11627 151.22002 2818 ft 152 kts 345°
2026-05-04 11:16 -34.10591 151.21757 2648 ft 151 kts 346°
2026-05-04 11:16 -34.09568 151.21502 2487 ft 146 kts 344°
2026-05-04 11:17 -34.08606 151.21240 2280 ft 139 kts 346°
2026-05-04 11:17 -34.07676 151.20992 2032 ft 136 kts 345°
2026-05-04 11:19 -34.01586 151.19402 844 ft 125 kts 346°
2026-05-04 11:19 -34.00731 151.19168 655 ft 128 kts 349°
2026-05-04 11:19 -33.99842 151.18931 623 ft 135 kts 351°
2026-05-04 11:19 -33.98936 151.18708 462 ft 132 kts 349°
2026-05-04 11:20 -33.98050 151.18475 306 ft 129 kts 353°
2026-05-04 11:20 -33.97174 151.18259 177 ft 130 kts 349°
2026-05-04 11:20 -33.96289 151.18027 44 ft 131 kts 349°
2026-05-04 11:20 -33.95460 151.17814 26 ft 108 kts 347°
2026-05-04 11:22 -33.93476 151.17448 22 ft 0 kts 77°
2026-05-04 11:24 -33.93179 151.17451 26 ft 13 kts 347°
2026-05-04 11:25 -33.93085 151.17426 27 ft 14 kts 347°
2026-05-04 11:25 -33.92990 151.17427 28 ft 13 kts 47°
2026-05-04 11:25 -33.92992 151.17509 33 ft 10 kts 101°
2026-05-04 11:26 -33.93034 151.17687 33 ft 3 kts 174°
2026-05-04 11:27 -33.93102 151.17674 33 ft 0 kts 187°